CW4185 Weather Reports


Display with metric or nautical units.
time (UTC)temp
F
wind
direction
speed
MPH
gust
MPH
rain 1hr
in
rain 24hr
in
rain mn
in
humidity
%
barometer
mb
20260506211147 84 170 14.0 16.0 0.00 0.00 0.02 79 1010.8
20260506210646 84 163 10.0 14.0 0.00 0.00 0.02 80 1010.8
20260506210147 84 159 9.0 16.0 0.00 0.00 0.02 79 1010.8
20260506205647 84 166 17.0 21.0 0.00 0.00 0.02 78 1010.8
20260506205146 85 180 11.0 12.0 0.00 0.00 0.02 79 1010.5
20260506204647 84 186 10.0 16.0 0.00 0.00 0.02 80 1010.8
20260506204147 84 173 11.0 14.0 0.00 0.00 0.02 80 1011.2
20260506203647 84 159 10.0 18.0 0.00 0.00 0.02 81 1011.2
20260506203147 84 144 7.0 18.0 0.00 0.00 0.02 81 1011.2
20260506202647 85 168 11.0 15.0 0.00 0.00 0.02 79 1011.2
20260506202146 84 167 8.0 16.0 0.00 0.00 0.02 79 1011.2
20260506201647 84 168 12.0 20.0 0.00 0.00 0.02 78 1011.5
20260506201147 84 151 11.0 21.0 0.00 0.00 0.02 78 1011.9
20260506200157 84 164 10.0 16.0 0.00 0.00 0.02 79 1011.5
20260506195648 84 151 9.0 14.0 0.00 0.00 0.02 80 1011.9
20260506195147 84 151 9.0 12.0 0.00 0.00 0.02 80 1011.9
20260506194647 84 168 14.0 15.0 0.00 0.00 0.02 79 1012.2
20260506194147 83 180 8.0 12.0 0.00 0.00 0.02 80 1011.9
20260506193647 83 181 7.0 14.0 0.00 0.00 0.02 81 1012.2
20260506193147 83 166 12.0 17.0 0.00 0.00 0.02 80 1012.2
20260506192648 83 175 9.0 12.0 0.00 0.00 0.02 81 1012.2
20260506192146 83 171 8.0 14.0 0.00 0.00 0.02 80 1012.5
20260506191647 83 163 10.0 15.0 0.00 0.00 0.02 80 1012.5
20260506191147 83 165 11.0 15.0 0.00 0.00 0.02 80 1012.2
20260506190647 83 157 6.0 10.0 0.00 0.00 0.02 80 1012.5
20260506190148 83 161 9.0 13.0 0.00 0.00 0.02 79 1012.9
20260506185646 84 164 8.0 13.0 0.00 0.00 0.02 79 1012.5
20260506185147 84 137 10.0 13.0 0.00 0.00 0.02 79 1012.5
20260506184647 84 172 9.0 12.0 0.00 0.00 0.02 81 1012.9
20260506183724 83 177 5.0 12.0 0.00 0.00 0.02 81 1013.2
20260506183147 83 177 9.0 13.0 0.00 0.00 0.02 81 1013.2
20260506182647 83 163 10.0 15.0 0.00 0.00 0.02 80 1012.9
20260506182147 83 185 9.0 14.0 0.00 0.00 0.02 80 1013.2
20260506181647 83 157 9.0 12.0 0.00 0.00 0.02 80 1012.9
20260506181147 83 154 7.0 17.0 0.00 0.00 0.02 80 1012.9
20260506180646 83 180 7.0 14.0 0.00 0.00 0.02 80 1012.9
20260506180146 84 167 9.0 17.0 0.00 0.00 0.02 80 1012.9
20260506175646 83 201 10.0 13.0 0.00 0.00 0.02 81 1013.2
20260506175147 83 185 11.0 16.0 0.00 0.00 0.02 83 1013.2
20260506174646 83 161 12.0 16.0 0.00 0.00 0.02 82 1013.2
20260506174147 82 201 6.0 12.0 0.00 0.00 0.02 84 1013.2
20260506173648 82 170 7.0 11.0 0.00 0.00 0.02 85 1013.2
20260506173147 82 160 7.0 12.0 0.00 0.00 0.02 86 1013.2
20260506172647 82 170 9.0 10.0 0.00 0.00 0.02 87 1013.5
20260506172147 81 184 7.0 9.0 0.00 0.00 0.02 88 1013.5
20260506171647 80 173 10.0 11.0 0.00 0.00 0.02 88 1013.5
20260506171147 80 163 11.0 11.0 0.00 0.00 0.02 90 1013.5
20260506170646 80 157 10.0 12.0 0.02 0.00 0.02 91 1013.5
20260506170147 80 172 4.0 11.0 0.02 0.00 0.02 91 1013.5
20260506165650 80 166 12.0 14.0 0.00 0.00 0.01 89 1013.9
20260506165147 80 168 9.0 15.0 0.00 0.00 0.01 88 1013.5
20260506164647 81 161 11.0 13.0 0.00 0.00 0.01 87 1013.5
20260506164147 81 164 5.0 14.0 0.00 0.00 0.01 88 1013.5
20260506163648 80 170 6.0 15.0 0.00 0.00 0.01 88 1013.5
20260506163146 81 180 7.0 13.0 0.00 0.00 0.01 88 1013.5
20260506162647 80 174 10.0 13.0 0.00 0.00 0.01 88 1013.2
20260506162146 81 170 9.0 14.0 0.00 0.00 0.01 87 1013.2
20260506161647 81 152 10.0 11.0 0.00 0.00 0.01 87 1012.9
20260506161146 81 160 6.0 8.0 0.00 0.00 0.01 88 1013.2
20260506160648 80 183 8.0 12.0 0.00 0.00 0.01 89 1013.2
20260506160147 80 197 5.0 16.0 0.00 0.00 0.01 88 1013.2
20260506155647 81 167 9.0 12.0 0.00 0.00 0.01 88 1012.9
20260506155147 81 186 8.0 10.0 0.00 0.00 0.01 89 1012.9
20260506154647 80 170 8.0 13.0 0.00 0.00 0.01 89 1013.2
20260506154147 80 163 9.0 13.0 0.00 0.00 0.01 89 1013.2
20260506153647 80 169 8.0 11.0 0.00 0.00 0.01 90 1012.9
20260506153147 79 159 11.0 13.0 0.00 0.00 0.01 90 1012.9
20260506152646 79 176 11.0 15.0 0.00 0.00 0.01 91 1012.9
20260506152146 79 184 9.0 13.0 0.00 0.00 0.01 91 1012.9
20260506151647 79 163 6.0 10.0 0.00 0.00 0.01 91 1012.9
20260506151147 79 172 7.0 11.0 0.00 0.00 0.01 91 1012.9
20260506150646 79 164 9.0 11.0 0.00 0.00 0.01 91 1012.9
20260506150147 79 173 8.0 11.0 0.00 0.00 0.01 91 1012.9
20260506145647 79 153 8.0 15.0 0.00 0.00 0.01 92 1012.9
20260506145147 79 167 8.0 11.0 0.00 0.00 0.01 92 1012.9
20260506144646 78 167 10.0 12.0 0.00 0.00 0.01 93 1012.9
20260506144147 78 175 6.0 13.0 0.00 0.00 0.01 93 1012.9
20260506143648 78 163 11.0 13.0 0.00 0.00 0.01 93 1012.9
20260506143146 78 164 10.0 13.0 0.00 0.00 0.01 93 1012.9
20260506142647 78 147 7.0 12.0 0.00 0.00 0.01 94 1012.5
20260506142147 78 169 5.0 13.0 0.00 0.00 0.01 94 1012.2
20260506141647 78 156 6.0 11.0 0.00 0.00 0.01 94 1012.5
20260506141154 77 178 9.0 11.0 0.00 0.00 0.01 95 1012.5
20260506140647 77 168 7.0 11.0 0.00 0.00 0.01 95 1012.5
20260506140149 77 170 6.0 12.0 0.00 0.00 0.01 95 1012.5
20260506135647 77 162 9.0 13.0 0.00 0.00 0.01 95 1012.2
20260506135147 77 153 8.0 8.0 0.00 0.00 0.01 96 1012.5
20260506134647 77 151 5.0 9.0 0.00 0.00 0.01 96 1012.5
20260506134147 77 178 8.0 11.0 0.00 0.00 0.01 96 1012.5
20260506133647 77 142 6.0 12.0 0.00 0.00 0.01 97 1012.5
20260506133146 76 161 5.0 8.0 0.00 0.00 0.01 97 1012.5
20260506132646 76 146 4.0 9.0 0.00 0.00 0.01 97 1012.5
20260506132148 76 170 6.0 10.0 0.00 0.00 0.01 98 1012.5
20260506131646 76 159 5.0 8.0 0.00 0.00 0.01 98 1012.2
20260506131146 76 164 6.0 8.0 0.00 0.00 0.01 98 1012.5
20260506130647 75 154 6.0 9.0 0.00 0.00 0.01 98 1012.2
20260506130147 75 133 5.0 8.0 0.00 0.00 0.01 99 1012.2
20260506125647 75 130 7.0 7.0 0.00 0.00 0.01 99 1012.5
20260506125147 75 158 3.0 7.0 0.00 0.00 0.01 99 1012.5
20260506124647 75 147 2.0 6.0 0.00 0.00 0.01 99 1012.2
20260506124147 75 165 5.0 7.0 0.00 0.00 0.01 99 1012.2
20260506123647 75 161 5.0 6.0 0.00 0.00 0.01 99 1012.2
20260506123146 75 124 3.0 6.0 0.00 0.00 0.01 99 1012.2
20260506122647 75 159 3.0 8.0 0.00 0.00 0.01 99 1011.9
20260506122147 75 133 7.0 7.0 0.00 0.00 0.01 99 1011.9
20260506121647 75 142 3.0 7.0 0.00 0.00 0.01 99 1012.2
20260506121147 75 133 3.0 6.0 0.00 0.00 0.01 99 1011.9
20260506120647 74 137 2.0 7.0 0.00 0.00 0.01 99 1011.9
20260506120147 74 163 4.0 6.0 0.00 0.00 0.01 99 1011.9
20260506115646 74 134 7.0 7.0 0.00 0.00 0.01 99 1011.9
20260506115146 74 133 3.0 6.0 0.00 0.00 0.01 99 1011.5
20260506114646 74 154 4.0 7.0 0.00 0.00 0.01 99 1011.9
20260506114147 74 133 3.0 6.0 0.00 0.00 0.01 99 1011.5
20260506113646 74 171 6.0 6.0 0.00 0.00 0.01 99 1011.5
20260506113147 74 157 4.0 5.0 0.00 0.00 0.01 99 1011.5
20260506112646 74 135 3.0 6.0 0.00 0.00 0.01 99 1011.9
20260506112147 74 147 5.0 7.0 0.00 0.00 0.01 99 1011.9
20260506111647 74 168 7.0 7.0 0.00 0.00 0.01 99 1011.5
20260506111149 74 160 8.0 11.0 0.02 0.00 0.01 99 1011.5
20260506110648 74 164 6.0 7.0 0.02 0.00 0.01 99 1011.5
20260506110147 74 164 7.0 8.0 0.02 0.00 0.01 99 1011.5
20260506105649 74 150 3.0 7.0 0.02 0.00 0.00 98 1011.2
20260506105147 74 167 4.0 8.0 0.02 0.00 0.00 98 1011.2
20260506104648 74 142 5.0 5.0 0.00 0.00 0.00 98 1011.2
20260506104146 74 165 7.0 7.0 0.00 0.00 0.00 97 1011.2
20260506103646 75 138 4.0 7.0 0.00 0.00 0.00 97 1011.2
20260506103146 75 168 5.0 8.0 0.00 0.00 0.00 96 1011.2
20260506102648 75 162 3.0 5.0 0.00 0.00 0.00 95 1011.2
20260506102149 75 154 7.0 9.0 0.00 0.00 0.00 94 1011.2
20260506101647 75 162 3.0 9.0 0.00 0.00 0.00 94 1010.8
20260506101150 75 164 5.0 8.0 0.00 0.00 0.00 94 1011.2
20260506100647 75 145 4.0 9.0 0.00 0.00 0.00 94 1011.2
20260506100146 75 180 6.0 9.0 0.00 0.00 0.00 94 1011.2
20260506095650 75 146 3.0 8.0 0.00 0.00 0.00 94 1011.2
20260506095147 75 146 2.0 8.0 0.00 0.00 0.00 94 1010.8
20260506094646 75 163 3.0 7.0 0.00 0.00 0.00 94 1011.2
20260506094148 75 154 5.0 7.0 0.00 0.00 0.00 94 1011.2
20260506093648 75 168 6.0 8.0 0.00 0.00 0.00 94 1010.8
20260506093147 75 165 5.0 7.0 0.00 0.00 0.00 94 1011.2
20260506092648 75 138 3.0 6.0 0.00 0.00 0.00 94 1010.8
20260506092146 75 150 5.0 6.0 0.00 0.00 0.00 93 1011.2
20260506091647 74 126 6.0 7.0 0.00 0.00 0.00 93 1011.2
20260506091148 74 151 3.0 5.0 0.00 0.00 0.00 93 1011.2
20260506090647 74 139 3.0 7.0 0.00 0.00 0.00 93 1011.2
20260506090147 74 143 5.0 6.0 0.00 0.00 0.00 93 1011.2
20260506085649 74 162 6.0 7.0 0.00 0.00 0.00 93 1011.2
20260506085147 74 146 3.0 5.0 0.00 0.00 0.00 93 1011.2
20260506084646 74 141 2.0 6.0 0.00 0.00 0.00 92 1011.2
20260506084147 74 171 2.0 5.0 0.00 0.00 0.00 92 1011.2
20260506083647 74 158 4.0 6.0 0.00 0.00 0.00 92 1011.2
20260506083148 74 144 3.0 5.0 0.00 0.00 0.00 92 1011.2
20260506082647 74 156 3.0 5.0 0.00 0.00 0.00 92 1011.2
20260506082146 74 157 4.0 6.0 0.00 0.00 0.00 92 1010.8
20260506081649 74 156 4.0 6.0 0.00 0.00 0.00 92 1011.2
20260506081146 74 160 5.0 7.0 0.00 0.00 0.00 92 1011.2
20260506080647 74 156 5.0 8.0 0.00 0.00 0.00 92 1011.2
20260506080147 74 155 3.0 6.0 0.00 0.00 0.00 92 1010.8
20260506073147 73 144 3.0 9.0 0.00 0.00 0.00 92 1011.2
20260506072647 73 166 6.0 9.0 0.00 0.00 0.00 92 1011.2
20260506072147 73 154 5.0 6.0 0.00 0.00 0.00 93 1011.2
20260506071646 73 157 6.0 9.0 0.00 0.00 0.00 93 1011.2
20260506071147 73 172 6.0 7.0 0.00 0.00 0.00 94 1011.2
20260506070647 73 148 7.0 8.0 0.00 0.00 0.00 94 1011.2
20260506070152 73 134 3.0 6.0 0.00 0.00 0.00 94 1011.2
20260506062147 73 157 3.0 6.0 0.00 0.00 0.00 93 1011.5
20260506061647 73 156 3.0 7.0 0.00 0.00 0.00 93 1011.5
20260506061148 73 138 5.0 7.0 0.00 0.00 0.00 93 1011.5
20260506060646 73 166 2.0 9.0 0.00 0.00 0.00 93 1011.5
20260506060146 73 140 5.0 7.0 0.00 0.00 0.00 93 1011.5
20260506051147 73 108 3.0 6.0 0.00 0.00 0.00 93 1011.9
20260506050646 73 159 4.0 10.0 0.00 0.00 0.00 93 1011.9
20260506050146 73 142 6.0 10.0 0.00 0.00 0.00 93 1011.5
20260506044647 73 139 6.0 10.0 0.00 0.00 0.00 93 1011.9
20260506044146 73 139 9.0 12.0 0.00 0.00 0.00 93 1011.9
20260506043647 73 118 3.0 8.0 0.00 0.00 0.00 93 1011.9
20260506043146 73 138 7.0 9.0 0.00 0.00 0.00 93 1011.9
20260506042647 73 157 4.0 9.0 0.00 0.00 0.00 93 1011.9
20260506042147 73 150 8.0 12.0 0.00 0.00 0.00 93 1011.9
20260506041647 73 139 5.0 10.0 0.00 0.00 0.00 93 1011.9
20260506041146 73 146 6.0 9.0 0.00 0.00 0.00 92 1011.9
20260506040647 73 148 6.0 10.0 0.00 0.00 0.00 92 1011.9
20260506040147 73 155 4.0 11.0 0.00 0.00 0.00 92 1011.9
20260506035647 73 148 4.0 10.0 0.00 0.00 0.00 92 1011.9
20260506035146 73 135 7.0 10.0 0.00 0.00 0.00 92 1011.9
20260506034647 73 137 7.0 11.0 0.00 0.00 0.00 91 1011.9
20260506034147 73 136 5.0 10.0 0.00 0.00 0.00 91 1011.9
20260506033647 74 141 5.0 11.0 0.00 0.00 0.00 91 1011.9
20260506033146 74 146 7.0 9.0 0.00 0.00 0.00 91 1011.9
20260506032647 74 148 8.0 11.0 0.00 0.00 0.00 91 1011.9
20260506032147 74 148 6.0 11.0 0.00 0.00 0.00 90 1011.9
20260506031647 74 148 5.0 11.0 0.00 0.00 0.00 90 1011.9
20260506031147 74 142 9.0 11.0 0.00 0.00 0.00 90 1011.9
20260506030647 74 134 5.0 9.0 0.00 0.00 0.00 90 1011.9
20260506030146 74 140 9.0 12.0 0.00 0.00 0.00 90 1011.9
20260506025646 74 132 5.0 10.0 0.00 0.00 0.00 90 1012.2
20260506025147 74 149 6.0 13.0 0.00 0.00 0.00 90 1011.9
20260506024648 74 134 5.0 12.0 0.00 0.00 0.00 89 1011.9
20260506024147 74 146 8.0 11.0 0.00 0.00 0.00 89 1011.9
20260506023647 74 126 4.0 8.0 0.00 0.00 0.00 88 1011.9
20260506023147 74 165 6.0 9.0 0.00 0.00 0.00 88 1011.5
20260506022647 74 144 5.0 7.0 0.00 0.00 0.00 88 1011.5
20260506022148 74 141 6.0 9.0 0.00 0.00 0.00 88 1011.5
20260506021646 74 166 7.0 9.0 0.00 0.00 0.00 88 1011.5
20260506021147 74 155 3.0 7.0 0.00 0.00 0.00 88 1011.5
20260506020647 75 155 7.0 8.0 0.00 0.00 0.00 87 1011.5
20260506020146 75 141 5.0 8.0 0.00 0.00 0.00 87 1011.5
20260506015647 75 144 7.0 7.0 0.00 0.00 0.00 86 1011.5
20260506015146 75 156 7.0 10.0 0.00 0.00 0.00 85 1011.5
20260506014649 75 149 3.0 7.0 0.00 0.00 0.00 84 1011.2
20260506014147 75 154 5.0 8.0 0.00 0.00 0.00 84 1011.2
20260506013647 75 161 4.0 6.0 0.00 0.00 0.00 84 1011.2
20260506013147 75 163 3.0 6.0 0.00 0.00 0.00 85 1011.2
20260506012646 75 164 6.0 8.0 0.00 0.00 0.00 85 1011.2
20260506012147 76 154 5.0 8.0 0.00 0.00 0.00 85 1011.2
20260506011646 76 156 5.0 8.0 0.00 0.00 0.00 84 1011.5
20260506011147 76 163 8.0 9.0 0.00 0.00 0.00 83 1011.2
20260506010647 76 164 5.0 8.0 0.00 0.00 0.00 83 1011.2
20260506010147 76 178 8.0 11.0 0.00 0.00 0.00 82 1011.2
20260506005647 77 166 7.0 8.0 0.00 0.00 0.00 81 1011.5
20260506005147 76 153 8.0 10.0 0.00 0.00 0.00 81 1011.2
20260506004649 77 159 9.0 12.0 0.00 0.00 0.00 82 1011.2
20260506004146 77 163 7.0 9.0 0.00 0.00 0.00 82 1011.2
20260506003653 77 176 8.0 9.0 0.00 0.00 0.00 81 1011.2
20260506003146 77 160 8.0 10.0 0.00 0.00 0.00 81 1011.5
20260506002647 77 171 7.0 9.0 0.00 0.00 0.00 80 1011.2
20260506002147 77 170 9.0 11.0 0.00 0.00 0.00 80 1011.2
20260506001647 77 166 10.0 13.0 0.00 0.00 0.00 80 1011.2
20260506001146 77 174 10.0 11.0 0.00 0.00 0.00 79 1011.2
20260506000648 77 159 7.0 9.0 0.00 0.00 0.00 79 1011.2
20260506000147 77 162 6.0 13.0 0.00 0.00 0.00 79 1011.2
20260505235646 77 152 7.0 12.0 0.00 0.00 0.00 79 1011.2
20260505235147 77 156 9.0 12.0 0.00 0.00 0.00 79 1011.2
20260505234646 78 162 6.0 11.0 0.00 0.00 0.00 79 1011.2
20260505234147 78 163 7.0 17.0 0.00 0.00 0.00 78 1011.2
20260505233647 78 148 7.0 12.0 0.00 0.00 0.00 77 1011.2
20260505233147 78 158 10.0 12.0 0.00 0.00 0.00 77 1011.2
20260505232646 78 171 7.0 13.0 0.00 0.00 0.00 76 1011.2
20260505232147 78 163 7.0 11.0 0.00 0.00 0.00 76 1011.2
20260505231646 78 162 5.0 11.0 0.00 0.00 0.00 76 1011.5
20260505231148 78 160 13.0 16.0 0.00 0.00 0.00 76 1011.5
20260505230646 78 157 7.0 16.0 0.00 0.00 0.00 76 1011.5
20260505230146 79 163 11.0 14.0 0.00 0.00 0.00 74 1011.2
20260505225646 79 133 7.0 10.0 0.00 0.00 0.00 76 1011.2
20260505225146 79 167 10.0 16.0 0.00 0.00 0.00 75 1011.2
20260505224647 79 168 9.0 13.0 0.00 0.00 0.00 75 1011.5
20260505224147 79 166 9.0 11.0 0.00 0.00 0.00 74 1011.2
20260505223647 79 154 9.0 17.0 0.00 0.00 0.00 74 1011.2
20260505223147 79 178 13.0 17.0 0.00 0.00 0.00 74 1011.2
20260505222646 79 205 10.0 17.0 0.00 0.00 0.00 74 1011.2
20260505222147 79 162 7.0 17.0 0.00 0.00 0.00 74 1011.2
20260505221649 79 164 11.0 17.0 0.00 0.00 0.00 72 1011.2
20260505221147 79 175 6.0 16.0 0.00 0.00 0.00 73 1011.2
20260505220647 80 155 9.0 15.0 0.00 0.00 0.00 73 1011.2
20260505220148 80 156 8.0 16.0 0.00 0.00 0.00 73 1011.2
20260505215647 80 171 15.0 18.0 0.00 0.00 0.00 73 1011.2
20260505215147 80 158 7.0 17.0 0.00 0.00 0.00 73 1011.2
20260505214647 80 134 8.0 18.0 0.00 0.00 0.00 73 1011.2
20260505214147 80 169 9.0 19.0 0.00 0.00 0.00 71 1011.2
20260505213646 80 150 13.0 17.0 0.00 0.00 0.00 74 1011.5
20260505213147 79 165 14.0 20.0 0.00 0.00 0.00 73 1011.2
20260505212648 79 162 8.0 17.0 0.00 0.00 0.00 74 1011.5
20260505212146 80 153 13.0 20.0 0.00 0.00 0.00 73 1011.5
20260505211647 80 162 15.0 17.0 0.00 0.00 0.00 73 1011.5